Regional Weather Roundup
Issued by NWS

Home | Current Version | Previous Version | Graphics & Text | Print | Product List | Glossary On
Versions: 1 2 3 4 5 6 7 8 9 10 11 12 13 14 15 16 17 18 19 20 21 22 23 24 25 26 27
000
ASUS45 KCYS 200110
RWRWY

WYOMING REGIONAL WEATHER ROUNDUP
NATIONAL WEATHER SERVICE CHEYENNE WY
600 PM MST FRI JAN 19 2018

NOTE:  "FAIR" INDICATES FEW OR NO CLOUDS BELOW 12,000 FEET
WITH NO SIGNIFICANT WEATHER AND/OR OBSTRUCTIONS TO VISIBILITY.

WYZ001-200200-
YELLOWSTONE NATIONAL PARK

CITY           SKY/WX    TMP DP  RH WIND       PRES   REMARKS
LK YELLOWSTONE   N/A     23  21  92 VRB3      29.78R
W YELLOWSTONE  NOT AVBL

$$
WYZ002>013-054>058-071-098>099-200200-
NORTHERN WYOMING

CITY           SKY/WX    TMP DP  RH WIND       PRES   REMARKS
JACKSON        FLURRIES  30  23  75 S13       29.82R WCI  20
CODY           LGT SNOW  32  30  92 N13       29.76R FOG     WCI  22
GREYBULL       FAIR      34  32  92 NW9       29.74R WCI  27
WORLAND        MOCLDY    32  30  92 W3        29.73R
SHERIDAN       CLOUDY    37  34  89 NW16      29.73R WCI  28
BUFFALO        MOCLDY    35  29  78 SW3       29.71S
GILLETTE       CLOUDY    38  32  79 W3        29.71R
HULETT         DRIZZLE   36  32  87 S5        29.71R WCI  32
NEWCASTLE      FAIR      32  30  93 E8        29.72R WCI  25

$$
WYZ014>020-022>026-101>103-200200-
CENTRAL WYOMING

CITY           SKY/WX    TMP DP  RH WIND       PRES   REMARKS
BIG PINEY      CLOUDY    30  22  72 N15       29.81R WCI  19
PINEDALE       LGT SNOW  30  28  93 NW15      29.81R WCI  19
DUBOIS         CLOUDY    30  19  64 W25G31    29.73R WCI  16
LANDER         FAIR      37  27  67 NW3       29.69R
RIVERTON       FAIR      36  22  56 NW14      29.69R WCI  27
CASPER         FAIR      42  25  50 SW12      29.69R
DOUGLAS        CLOUDY    42  26  53 CALM      29.69R

$$
WYZ021-027>030-104>119-200200-
SOUTHERN WYOMING

CITY           SKY/WX    TMP DP  RH WIND       PRES   REMARKS
EVANSTON       LGT SNOW  29  28  96 NW20G30   29.81R FOG     WCI  16
FORT BRIDGER   CLOUDY    32  32 100 NW16      29.82R WCI  21
ROCK SPRINGS   FAIR      37  26  64 SW8       29.77R WCI  31
DIXON            N/A     42  20  41 S7        29.86R
RAWLINS        FAIR      40  21  46 W12       29.77S WCI  33
SARATOGA       FAIR      41  21  45 SW18G24   29.78S
LARAMIE        FAIR      37  17  44 W10       29.76F WCI  30
CHEYENNE       FAIR      51  18  27 W20       29.75S
TORRINGTON     FAIR      55  26  32 NW7       29.68R

$$




USA.gov is the U.S. government's official web portal to all federal, state and local government web resources and services.